Location: *
(41.3833°S, 177.8333°W)
Time: 02:28:30
(UTC+00:00)

Helios 1B - Pass Details

Date: 01 April 2020
Orbit: 620 x 623 km, 98.3° (Epoch: 30 May)

Event Time Altitude Azimuth Distance (km) Brightness Sun altitude
Rises 16:02:41 0° 170° (S) 2,939 8.4 -24.1°
Reaches altitude 10° 16:04:54 10° 172° (S) 2,025 7.5 -23.7°
Enters shadow 16:09:07 68° 238° (WSW) 682 4.5 -22.9°
